Wind_Speed
16 20 18 17 15 13 13 11 11 7 6 6 5 6 8 8 8 9 7 7 6 6 6 8 9 11 12 10 8 13 8 7 4 10 3 5 5 3 3 4 6 8 8 10 3
18 17 23 20 18 16 14 13 12 11 9 7 6 5 4 5 6 6 5 4 3 2 2 3 6 8 9 5 16 17 11 10 11 5 1 3 1 8 5 6 6 2 12 13 9
20 19 18 25 20 17 15 13 13 12 12 10 7 6 5 5 4 3 2 1 1 3 4 5 6 6 10 9 11 10 11 9 3 10 3 4 4 5 7 7 8 6 7 13 11
18 20 17 18 24 21 17 14 12 12 12 11 10 9 7 7 6 6 5 6 6 7 7 10 9 7 14 12 11 10 10 4 6 7 3 8 4 5 7 6 6 2 7 9 14
10 16 16 12 25 24 21 17 14 12 10 10 9 9 9 9 7 7 8 7 8 9 10 10 13 8 9 12 14 8 5 7 6 7 5 4 1 8 6 7 5 6 6 7 7
10 12 16 15 13 25 22 20 15 12 13 11 9 8 7 8 9 9 10 10 12 12 11 14 16 13 8 10 9 4 4 5 10 9 11 4 4 7 8 10 10 9 4 7 8
8 14 17 19 19 16 22 17 19 16 15 13 14 12 10 9 10 11 14 18 15 13 15 18 18 13 10 11 7 9 8 8 7 15 5 2 10 7 8 6 7 7 9 6 11
7 6 11 10 10 10 14 23 15 15 13 12 12 13 15 15 16 18 21 21 15 16 16 15 16 9 8 4 9 11 10 13 9 6 7 6 3 6 5 6 6 8 8 5 6
9 4 9 9 7 8 13 15 15 11 12 14 15 16 17 20 20 22 24 22 17 14 13 13 14 12 7 6 15 20 13 9 15 8 7 5 6 4 6 4 6 7 4 3 2
11 6 6 9 9 4 8 12 13 13 19 20 19 19 18 20 20 23 25 20 15 9 14 16 17 13 5 10 17 16 5 8 10 14 14 7 7 5 5 4 8 9 7 5 7
12 10 7 9 8 7 7 7 9 13 16 18 19 17 15 12 15 17 16 12 11 7 10 11 18 19 4 7 14 3 9 7 13 14 5 9 4 5 4 6 9 8 8 5 6
14 14 13 10 6 7 8 8 9 8 6 6 9 11 11 10 13 15 14 11 12 6 9 14 16 12 16 5 9 7 13 8 11 9 8 13 6 7 6 6 7 8 10 8 14
15 16 16 14 13 12 11 13 13 12 14 5 1 5 6 7 12 9 11 8 6 5 13 14 3 19 13 8 10 8 14 12 9 5 5 4 3 9 9 5 6 9 10 10 12
12 13 14 18 18 21 18 17 15 17 22 21 16 11 5 7 12 8 8 8 3 4 17 9 21 14 5 18 12 7 15 2 7 7 7 7 10 5 9 8 4 8 10 9 14
12 14 17 16 20 24 23 27 29 29 37 34 36 39 19 6 3 3 8 5 3 1 9 9 11 12 11 16 22 14 13 17 18 16 7 9 10 10 9 11 7 7 9 8 13
11 13 15 20 22 23 21 25 26 28 33 31 29 31 33 29 18 4 6 8 7 13 11 13 12 7 8 15 23 15 27 30 16 13 2 10 10 15 14 13 12 7 6 6 12
9 9 11 12 15 19 22 27 22 26 29 22 22 21 29 30 28 30 24 16 15 13 11 11 10 10 17 11 18 25 26 30 13 3 10 19 15 13 13 14 16 12 8 4 8
7 7 12 14 17 18 19 21 22 18 13 17 14 19 17 27 23 27 25 22 18 14 12 14 14 19 20 14 20 22 23 23 26 15 15 16 17 14 11 11 13 16 11 9 6
7 6 9 12 10 10 11 16 16 13 7 10 10 21 11 17 21 17 19 18 16 15 12 14 14 19 15 12 16 24 26 26 28 24 22 19 13 15 15 14 12 14 13 9 12
7 5 5 7 7 8 8 10 14 14 8 3 9 14 5 11 15 14 14 13 11 17 13 8 13 10 5 7 15 21 25 25 22 25 26 14 8 12 10 13 14 11 14 12 10
5 3 2 1 6 6 3 1 4 8 6 3 13 13 7 7 6 3 8 5 7 13 17 12 8 8 4 5 9 13 15 19 21 17 21 20 3 9 12 13 9 7 8 12 12
5 4 5 4 5 8 9 7 5 10 4 9 12 15 18 14 11 9 6 7 4 6 9 5 6 10 9 5 2 8 10 12 15 16 15 15 14 13 10 6 14 13 9 12 12
11 9 8 8 11 13 11 12 13 14 5 7 6 9 9 17 14 17 15 12 11 7 6 4 4 12 12 5 4 4 8 6 11 17 15 19 10 14 17 11 12 9 12 11 11
14 13 13 16 14 15 16 13 13 15 12 10 9 10 13 12 9 10 15 19 14 14 15 5 2 8 21 15 12 6 7 4 9 10 16 16 19 13 16 10 6 11 14 15 13
18 20 18 17 20 19 19 18 15 16 14 13 14 10 13 11 11 9 7 14 15 16 17 7 10 7 27 22 15 11 4 4 8 12 16 16 15 12 10 6 8 6 9 14 16
18 19 22 23 22 22 20 17 12 14 18 18 18 19 20 16 10 10 8 7 18 18 19 21 20 15 11 25 28 24 16 8 9 18 14 12 10 12 1 2 4 3 9 14 11
20 20 22 21 21 20 15 16 17 18 23 24 24 23 24 25 23 15 12 15 14 16 21 23 26 26 13 18 21 32 22 12 11 16 10 13 11 15 16 10 10 8 11 13 13
Wind_Direction
252 242 235 238 239 238 234 223 216 207 196 182 160 143 135 129 124 114 106 94 85 72 48 31 11 11 4 5 318 332 359 308 84 127 166 225 200 213 54 318 300 268 313 309 299
251 246 235 232 238 237 236 233 226 221 219 205 193 184 163 149 134 127 119 114 101 64 52 8 357 4 343 319 334 338 316 291 253 198 179 172 178 247 314 343 338 10 304 303 310
248 245 243 228 230 236 237 232 229 227 226 219 210 207 204 201 177 168 179 221 263 294 312 316 340 339 335 350 359 350 323 353 167 192 180 144 257 321 309 338 18 348 282 277 297
251 239 242 236 222 226 227 225 224 224 225 221 214 215 216 218 210 217 237 247 253 260 282 295 314 330 323 338 6 357 326 257 189 258 232 275 49 328 355 342 21 277 262 276 298
261 242 233 237 223 220 219 221 220 215 217 217 208 212 219 232 228 234 237 238 251 253 258 293 301 318 310 333 6 359 356 173 185 224 285 299 30 342 8 0 347 293 299 277 292
261 244 235 233 241 225 224 216 216 214 222 221 216 211 214 234 225 225 238 243 247 254 290 292 297 298 339 322 329 302 203 219 220 198 240 290 36 359 2 348 325 324 325 304 279
288 245 233 236 239 236 227 218 212 207 234 238 234 235 239 259 246 248 255 252 270 287 286 281 281 308 306 332 310 257 252 172 232 175 191 112 40 343 333 317 319 316 333 310 294
332 273 219 213 208 219 214 214 202 207 215 241 262 269 264 251 254 255 259 263 269 277 277 283 281 277 280 310 316 310 268 205 195 105 79 38 74 30 5 7 330 314 344 335 317
23 33 186 187 158 198 206 195 208 215 229 247 260 270 264 254 238 247 251 260 260 278 269 267 268 266 253 296 298 286 293 193 174 160 145 126 105 64 45 11 333 344 33 29 58
37 69 154 175 176 126 149 174 198 226 245 251 253 256 248 247 244 238 247 252 251 244 247 257 266 266 271 302 332 336 170 171 181 177 173 180 123 91 52 30 8 25 58 80 93
47 65 117 154 174 189 177 180 206 228 243 252 249 235 229 243 235 240 239 236 244 264 290 279 265 255 271 335 348 191 221 146 148 177 162 144 105 108 101 40 25 34 58 104 111
57 71 83 99 147 212 224 217 193 171 180 212 238 227 223 232 235 222 234 222 227 260 293 299 303 250 194 266 272 66 103 121 132 135 137 135 148 122 87 65 28 34 64 124 126
61 71 71 79 86 89 98 111 110 89 61 46 157 248 233 223 237 229 246 241 254 308 315 316 93 113 163 163 108 84 107 135 163 146 107 107 97 80 88 68 33 47 70 118 131
64 68 76 82 85 88 94 94 95 77 72 59 46 11 323 238 230 235 246 249 263 341 35 88 100 158 224 336 45 83 38 113 102 96 88 126 72 31 102 94 73 72 78 130 137
69 82 91 97 93 86 83 80 85 72 64 58 46 36 24 42 223 211 273 278 234 171 139 86 75 102 13 4 350 43 32 49 17 351 205 123 76 94 112 113 97 68 86 114 143
76 108 105 93 90 93 91 75 71 67 54 48 50 37 45 60 61 121 127 88 91 116 125 164 107 71 1 348 27 32 26 5 356 358 223 148 112 101 107 115 113 101 93 120 140
82 97 104 107 115 89 82 76 72 54 39 35 32 36 27 41 68 66 68 82 90 82 114 126 78 26 8 357 31 39 31 14 19 184 139 135 125 113 116 120 120 126 117 145 144
80 89 102 125 112 93 100 91 87 86 57 38 37 31 23 30 61 61 59 62 81 79 84 86 61 50 38 27 28 23 27 18 5 333 201 153 135 135 122 103 105 108 132 145 168
62 71 106 135 123 119 101 98 95 106 67 25 31 33 37 29 33 42 52 44 35 28 71 83 69 70 61 45 33 37 30 20 7 15 162 170 143 119 128 106 90 88 104 133 157
59 59 89 138 152 120 129 112 100 116 112 47 141 90 51 80 33 45 35 18 1 19 27 82 92 88 69 29 18 30 28 22 18 26 17 167 108 99 108 112 79 72 96 102 101
37 30 51 132 164 166 184 258 107 103 88 233 168 143 168 98 104 76 15 12 354 349 346 346 171 157 99 351 1 11 7 4 358 14 18 15 70 95 77 71 53 47 56 76 74
328 345 326 287 248 258 264 313 325 292 188 188 215 197 189 192 158 180 174 137 228 267 293 314 208 195 139 232 335 6 346 336 340 340 20 42 94 79 74 51 29 33 60 69 69
306 307 289 258 270 282 310 297 284 301 320 272 267 257 253 223 212 193 192 223 255 274 285 288 255 178 181 227 228 56 331 340 316 332 344 13 51 44 51 29 19 37 38 59 54
295 287 280 285 275 264 271 270 282 292 296 298 294 295 280 285 290 257 222 217 236 272 281 254 189 178 183 184 175 163 313 307 314 328 315 351 337 348 356 36 59 30 20 33 38
290 288 285 277 274 278 281 282 276 289 295 302 303 284 273 269 285 324 297 259 275 265 273 260 297 218 193 204 200 184 188 296 324 300 313 316 322 329 350 11 83 46 347 4 6
288 285 287 285 287 287 289 290 285 268 272 276 271 279 281 278 250 272 275 274 279 280 287 283 279 279 306 217 217 206 211 234 306 296 298 298 327 299 1 179 286 314 298 323 330
289 285 280 279 281 286 290 286 278 266 269 263 266 267 277 286 296 286 265 266 255 239 250 268 271 272 263 272 249 227 213 231 254 262 281 308 254 263 270 236 255 282 299 299 300
Height
5904 5904 5905 5906 5907 5909 5910 5912 5913 5915 5916 5917 5918 5919 5920 5920 5920 5919 5918 5918 5917 5915 5914 5913 5911 5911 5912 5911 5908 5908 5901 5907 5907 5905 5906 5907 5905 5903 5903 5905 5904 5903 5902 5899 5904
5900 5900 5901 5903 5904 5906 5907 5909 5911 5913 5915 5916 5917 5918 5919 5919 5920 5919 5919 5917 5917 5916 5915 5913 5912 5910 5911 5910 5907 5907 5906 5904 5903 5902 5904 5905 5905 5904 5906 5905 5903 5902 5899 5896 5895
5895 5896 5896 5898 5900 5903 5904 5906 5909 5911 5912 5914 5916 5917 5918 5918 5919 5918 5918 5917 5916 5915 5913 5913 5912 5910 5910 5910 5908 5905 5904 5901 5898 5899 5901 5901 5906 5904 5902 5902 5901 5899 5898 5896 5893
5890 5891 5892 5893 5896 5899 5901 5904 5907 5908 5910 5912 5914 5916 5916 5917 5918 5917 5916 5916 5915 5913 5913 5911 5912 5912 5909 5907 5906 5904 5901 5901 5900 5902 5903 5902 5901 5904 5900 5899 5901 5900 5897 5895 5893
5886 5887 5888 5890 5892 5895 5898 5902 5904 5906 5908 5910 5912 5914 5915 5915 5916 5915 5915 5914 5913 5912 5911 5910 5908 5908 5908 5907 5905 5902 5898 5898 5900 5900 5901 5903 5899 5900 5900 5898 5899 5898 5898 5894 5891
5884 5884 5885 5887 5888 5891 5895 5899 5902 5904 5906 5908 5910 5912 5913 5913 5913 5913 5912 5911 5910 5911 5913 5911 5908 5906 5906 5905 5904 5902 5898 5898 5897 5900 5900 5901 5898 5899 5900 5898 5895 5895 5895 5893 5891
5880 5880 5881 5883 5885 5888 5891 5896 5899 5902 5904 5907 5909 5910 5911 5912 5911 5910 5908 5906 5911 5913 5912 5910 5906 5909 5905 5904 5903 5900 5898 5894 5895 5891 5901 5899 5895 5899 5898 5897 5896 5894 5893 5892 5887
5877 5876 5877 5880 5883 5885 5888 5892 5896 5899 5902 5904 5906 5908 5907 5908 5908 5906 5904 5906 5910 5910 5909 5907 5906 5906 5906 5905 5904 5900 5897 5898 5896 5896 5897 5898 5899 5898 5896 5896 5895 5893 5891 5889 5886
5877 5875 5876 5879 5882 5883 5886 5889 5894 5897 5900 5902 5903 5903 5904 5903 5903 5901 5899 5904 5907 5908 5907 5905 5902 5904 5905 5907 5903 5899 5897 5895 5896 5898 5897 5899 5899 5896 5894 5896 5895 5893 5890 5889 5888
5878 5877 5877 5880 5882 5884 5885 5888 5892 5896 5898 5899 5899 5901 5900 5899 5899 5897 5896 5901 5905 5906 5904 5903 5901 5903 5907 5905 5903 5896 5896 5897 5896 5895 5895 5899 5899 5896 5895 5895 5895 5893 5890 5889 5889
5881 5880 5879 5881 5883 5884 5886 5888 5892 5895 5895 5897 5896 5895 5895 5896 5895 5893 5895 5899 5901 5902 5902 5901 5901 5898 5905 5906 5903 5895 5897 5895 5893 5896 5898 5900 5901 5897 5897 5894 5895 5893 5892 5892 5891
5884 5883 5882 5882 5883 5883 5885 5887 5889 5891 5892 5893 5893 5893 5892 5893 5893 5891 5893 5898 5898 5901 5901 5901 5898 5892 5901 5903 5901 5893 5892 5895 5895 5894 5897 5901 5901 5900 5897 5895 5895 5895 5893 5894 5894
5889 5887 5886 5885 5884 5885 5886 5888 5890 5892 5892 5893 5892 5892 5891 5891 5891 5890 5891 5894 5896 5899 5900 5902 5898 5893 5894 5898 5899 5895 5896 5895 5897 5896 5896 5901 5901 5899 5897 5897 5896 5897 5895 5896 5896
5893 5891 5890 5888 5889 5887 5888 5890 5893 5893 5892 5894 5892 5891 5890 5889 5889 5890 5891 5894 5897 5900 5900 5898 5899 5900 5900 5898 5895 5898 5899 5899 5899 5898 5897 5897 5898 5898 5900 5899 5899 5899 5898 5899 5899
5895 5895 5893 5893 5892 5891 5893 5894 5894 5895 5893 5894 5894 5891 5888 5889 5890 5889 5888 5893 5897 5900 5903 5906 5903 5902 5901 5900 5895 5899 5899 5901 5902 5900 5897 5897 5899 5898 5899 5901 5901 5901 5900 5901 5901
5899 5898 5898 5897 5896 5897 5897 5896 5895 5896 5896 5898 5897 5899 5896 5893 5894 5894 5893 5894 5898 5899 5902 5903 5904 5904 5900 5904 5901 5900 5896 5896 5899 5901 5900 5900 5901 5898 5898 5900 5902 5902 5902 5905 5905
5901 5901 5900 5900 5901 5899 5898 5898 5901 5897 5899 5902 5903 5903 5901 5902 5900 5898 5897 5897 5901 5903 5904 5904 5905 5903 5902 5906 5905 5901 5899 5898 5899 5902 5903 5901 5900 5898 5896 5896 5897 5902 5904 5906 5906
5903 5903 5903 5902 5902 5902 5902 5902 5901 5901 5901 5903 5904 5904 5905 5905 5904 5902 5902 5903 5904 5905 5906 5905 5905 5905 5906 5904 5904 5906 5908 5906 5902 5903 5903 5902 5900 5899 5900 5901 5900 5899 5902 5905 5907
5906 5905 5905 5905 5905 5904 5904 5902 5902 5903 5904 5904 5902 5902 5904 5906 5906 5905 5905 5905 5905 5906 5907 5908 5906 5906 5907 5909 5910 5910 5909 5908 5905 5894 5897 5901 5903 5902 5901 5902 5901 5900 5904 5905 5906
5907 5907 5906 5905 5905 5905 5904 5902 5900 5899 5901 5905 5906 5904 5904 5905 5906 5907 5906 5906 5906 5907 5908 5908 5907 5908 5910 5910 5911 5911 5910 5911 5909 5906 5900 5902 5904 5904 5904 5904 5902 5902 5902 5905 5906
5908 5907 5907 5907 5906 5906 5904 5902 5900 5898 5898 5902 5904 5903 5901 5902 5903 5907 5908 5905 5906 5907 5906 5906 5909 5910 5910 5908 5909 5911 5911 5912 5911 5911 5909 5908 5905 5907 5905 5906 5906 5906 5905 5904 5905
5908 5907 5906 5905 5906 5904 5902 5901 5901 5900 5897 5897 5900 5901 5900 5901 5902 5904 5905 5902 5905 5907 5907 5906 5906 5908 5910 5907 5908 5909 5910 5912 5911 5910 5910 5912 5912 5908 5905 5904 5904 5906 5908 5904 5902
5905 5905 5905 5904 5902 5901 5901 5901 5900 5899 5898 5897 5899 5899 5898 5898 5900 5901 5902 5902 5902 5902 5903 5904 5904 5905 5908 5909 5905 5907 5907 5910 5911 5908 5910 5912 5914 5910 5904 5901 5903 5906 5907 5905 5903
5902 5902 5900 5898 5898 5896 5895 5896 5895 5897 5897 5896 5897 5899 5899 5897 5898 5900 5901 5900 5899 5900 5899 5900 5902 5905 5905 5905 5904 5906 5907 5908 5909 5909 5907 5909 5909 5909 5906 5902 5900 5904 5908 5907 5905
5897 5895 5895 5893 5891 5892 5893 5893 5896 5895 5894 5894 5893 5894 5894 5896 5897 5898 5900 5900 5899 5898 5897 5898 5899 5901 5900 5902 5903 5903 5903 5903 5906 5907 5907 5905 5906 5908 5908 5905 5904 5904 5906 5904 5906
5891 5890 5887 5886 5886 5886 5888 5889 5891 5891 5889 5887 5888 5887 5886 5889 5894 5894 5896 5897 5897 5898 5897 5895 5895 5897 5901 5898 5896 5899 5902 5900 5901 5901 5903 5904 5903 5905 5906 5905 5905 5903 5907 5906 5906
5886 5884 5882 5881 5880 5880 5883 5882 5883 5883 5882 5881 5882 5883 5884 5883 5884 5889 5890 5891 5893 5893 5892 5891 5890 5891 5894 5895 5895 5896 5899 5898 5899 5899 5898 5899 5902 5902 5906 5905 5903 5902 5905 5907 5904